Temperature
4 4 4 4 4 4 4 3 3 3 3 3 4 4 3 4 4 4 4 4 4 3 3 3 3 3 3 4 3 3 3 3 3 3 3 3 3 3
3 3 3 3 3 3 3 3 3 3 2 3 3 3 3 3 3 3 3 3 3 3 3 3 3 3 3 3 3 3 2 2 2 2 3 3 3 3
2 3 3 3 3 3 2 2 2 2 2 2 3 3 2 2 2 2 2 2 2 2 2 2 2 2 2 2 2 2 2 2 2 2 2 2 2 2
2 2 2 2 2 2 2 2 2 2 2 2 2 2 2 2 2 2 2 2 2 2 2 2 2 2 2 2 2 1 1 1 1 1 2 2 2 2
1 1 1 1 1 1 1 1 1 1 1 1 1 2 1 1 1 1 1 1 1 1 1 1 1 1 1 1 1 1 1 1 1 1 1 1 1 1
1 0 0 1 1 1 1 1 1 1 1 1 1 1 1 1 1 1 1 1 1 1 0 0 1 1 1 1 0 0 0 0 0 0 0 0 1 1
-0 -0 -0 0 0 0 0 0 0 0 0 -0 -0 -0 -0 -0 -0 -0 -0 -0 0 0 0 -0 0 0 0 0 0 -0 -0 -0 0 0 0 0 0 0
-1 -0 -0 -0 -0 -0 -0 -1 -1 -1 -1 -1 -1 -1 -1 -1 -1 -1 -1 -1 -1 -1 -1 -0 -0 -0 -0 -0 -0 -0 -0 -0 -0 -0 -0 -0 -0 -0
-1 -1 -1 -1 -1 -1 -1 -1 -1 -1 -1 -1 -1 -1 -1 -1 -1 -2 -2 -2 -2 -1 -1 -1 -1 -1 -1 -1 -1 -1 -1 -1 -1 -1 -1 -1 -1 -1
-2 -2 -2 -1 -1 -1 -2 -2 -2 -2 -2 -2 -2 -2 -2 -2 -2 -2 -2 -2 -2 -2 -2 -2 -1 -1 -1 -1 -1 -1 -1 -1 -1 -1 -1 -1 -1 -1
-2 -2 -2 -2 -2 -2 -2 -2 -2 -2 -2 -2 -2 -2 -2 -2 -2 -2 -2 -3 -3 -2 -3 -3 -2 -2 -2 -1 -1 -1 -2 -2 -2 -2 -2 -2 -2 -2
-3 -3 -3 -3 -3 -3 -3 -3 -3 -2 -2 -2 -2 -2 -2 -2 -2 -3 -3 -3 -3 -3 -3 -3 -3 -3 -3 -2 -2 -2 -2 -2 -2 -2 -2 -2 -2 -2
-3 -3 -3 -3 -3 -3 -3 -3 -3 -3 -3 -3 -3 -3 -3 -3 -3 -3 -3 -3 -4 -4 -3 -4 -4 -4 -4 -3 -2 -2 -2 -2 -2 -2 -2 -2 -3 -3
-3 -3 -3 -3 -3 -3 -3 -3 -3 -4 -3 -3 -3 -3 -3 -3 -3 -3 -3 -4 -4 -4 -4 -4 -4 -4 -4 -4 -3 -3 -3 -3 -3 -3 -3 -3 -3 -3
-4 -4 -4 -4 -4 -4 -4 -4 -4 -4 -4 -4 -4 -4 -4 -4 -4 -4 -4 -4 -4 -4 -4 -4 -4 -4 -4 -4 -4 -3 -3 -3 -3 -3 -3 -3 -3 -3
-4 -4 -4 -4 -4 -4 -4 -4 -4 -4 -4 -4 -4 -4 -4 -4 -4 -4 -4 -4 -4 -4 -4 -4 -4 -4 -4 -4 -4 -4 -4 -4 -4 -4 -4 -4 -4 -4
-5 -5 -4 -4 -4 -5 -4 -4 -4 -4 -4 -5 -4 -4 -5 -5 -5 -5 -5 -5 -5 -5 -4 -4 -4 -4 -4 -4 -4 -4 -4 -4 -4 -4 -4 -4 -4 -4
-5 -5 -5 -5 -5 -5 -5 -5 -5 -5 -5 -5 -5 -5 -5 -5 -5 -5 -6 -6 -5 -5 -5 -5 -5 -4 -4 -4 -4 -4 -4 -4 -4 -4 -4 -4 -4 -4
-5 -5 -5 -5 -5 -5 -5 -5 -6 -6 -6 -5 -5 -5 -5 -6 -6 -6 -6 -6 -6 -6 -5 -5 -5 -5 -5 -5 -5 -5 -5 -4 -4 -4 -4 -4 -4 -4
-5 -5 -6 -6 -6 -6 -6 -6 -6 -6 -6 -6 -6 -6 -6 -6 -6 -6 -6 -6 -6 -6 -6 -6 -6 -6 -6 -6 -5 -5 -5 -5 -5 -5 -4 -4 -4 -4
-6 -6 -6 -6 -6 -6 -6 -6 -6 -6 -6 -6 -6 -6 -6 -6 -6 -6 -6 -6 -6 -6 -6 -6 -6 -6 -6 -6 -5 -5 -5 -5 -5 -5 -5 -5 -5 -4
-6 -6 -6 -6 -6 -6 -6 -6 -6 -6 -6 -6 -6 -6 -6 -6 -6 -6 -6 -6 -6 -6 -6 -6 -6 -6 -6 -6 -6 -5 -5 -5 -5 -5 -5 -5 -5 -5
-7 -7 -7 -7 -7 -7 -7 -7 -7 -7 -7 -7 -7 -7 -7 -7 -7 -7 -7 -7 -6 -6 -6 -6 -6 -6 -6 -6 -6 -5 -5 -5 -5 -5 -5 -5 -5 -5
Wind_Speed
3 3 3 2 2 2 2 3 3 3 4 3 2 2 4 4 5 5 6 7 8 9 9 9 9 10 10 10 10 10 10 11 11 12 13 14 15 15
3 3 3 3 2 2 3 3 3 4 4 2 3 2 4 4 5 5 6 8 9 9 10 9 9 10 9 9 9 10 10 11 11 12 13 14 14 14
3 3 4 3 3 3 3 3 3 3 4 4 2 2 2 3 4 5 5 6 7 9 9 9 9 9 9 9 10 10 10 11 12 12 13 14 15 15
4 4 4 3 3 3 3 3 3 3 4 5 3 2 2 3 3 3 5 5 6 8 8 8 8 9 9 9 9 10 10 11 12 13 13 14 15 15
4 4 4 4 4 3 3 3 3 3 3 3 3 2 2 2 2 3 3 4 5 7 7 7 8 9 9 9 10 11 11 12 13 13 14 14 14 15
3 4 4 5 5 4 4 3 3 2 2 2 3 2 2 2 1 2 4 3 4 5 6 7 8 9 9 10 11 11 11 12 13 13 13 14 14 14
3 3 4 5 6 5 4 4 3 3 2 3 3 3 2 2 2 2 4 4 4 3 3 4 5 5 6 9 10 11 11 12 13 13 14 13 13 13
4 3 3 4 5 5 5 5 4 4 4 4 3 4 4 3 3 3 3 3 4 2 2 5 3 4 4 6 9 10 10 11 12 12 12 12 13 13
4 3 3 3 3 3 4 4 4 5 6 5 5 6 5 4 3 4 4 4 5 3 3 5 3 5 5 8 11 11 11 11 11 12 11 12 12 12
3 3 4 4 4 4 3 3 4 4 5 4 5 5 5 4 4 4 4 4 4 3 2 4 3 4 5 6 10 10 11 11 11 11 11 11 12 12
3 3 3 4 5 4 3 3 3 3 4 4 5 5 5 5 4 2 2 2 4 3 2 2 3 4 4 4 6 8 9 10 10 10 11 11 10 10
2 3 4 4 5 5 3 3 4 3 2 2 1 2 3 3 4 2 3 3 3 3 2 2 2 3 3 3 3 4 6 8 10 10 10 10 9 6
2 2 2 4 5 5 4 3 5 3 2 2 1 1 1 1 2 2 3 3 3 4 3 2 3 3 3 4 4 4 4 4 5 7 8 9 10 7
2 2 2 4 4 5 4 3 4 2 1 1 1 1 2 2 2 2 3 3 4 5 5 3 3 3 4 4 4 4 4 4 4 4 5 8 8 9
1 3 3 3 3 3 3 3 2 1 1 1 2 2 2 2 2 2 2 2 3 3 3 3 3 3 3 4 4 4 5 4 3 3 4 5 4 4
1 2 3 3 2 2 2 1 0 1 2 2 2 1 1 1 1 1 1 2 2 3 3 3 3 3 3 4 4 5 4 3 4 4 4 4 4 4
1 0 1 1 1 1 1 1 1 0 0 0 1 1 1 1 1 1 2 2 2 2 3 3 2 2 3 3 3 4 4 4 4 4 4 5 5 4
1 1 1 1 1 1 1 1 1 0 0 0 1 1 1 2 2 2 1 1 2 2 2 2 3 3 2 2 3 3 3 3 4 4 4 4 5 4
1 1 1 1 1 1 1 1 1 1 1 1 1 1 1 2 2 2 2 2 2 2 3 2 2 2 3 4 3 2 3 4 4 4 3 3 4 5
1 1 1 1 1 1 1 1 1 1 1 1 1 1 1 2 2 2 2 2 2 2 3 2 2 2 3 3 3 4 5 4 3 4 4 4 4 6
2 2 2 2 2 2 2 2 2 2 2 1 1 2 2 2 2 2 2 3 3 2 2 3 4 5 3 1 2 3 4 5 4 3 3 3 3 3
2 2 2 2 2 2 2 2 2 2 2 2 2 2 2 2 2 3 3 2 2 2 3 3 3 3 1 1 3 3 4 5 5 6 4 2 1 1
2 2 2 2 2 2 2 2 2 2 2 2 2 2 2 2 2 2 2 2 1 2 2 2 2 2 2 2 2 3 4 4 3 4 4 6 5 5
Wind_Direction
231 232 232 235 224 232 225 199 200 243 257 243 250 268 303 303 292 294 294 291 290 287 286 286 285 286 288 291 288 292 296 297 298 300 300 299 299 300
225 229 235 237 232 231 231 229 216 220 249 246 244 271 289 295 292 295 290 296 294 290 288 285 286 286 287 288 291 293 295 299 301 303 303 304 304 303
235 229 235 232 230 234 229 229 232 220 247 271 256 271 259 273 302 299 296 294 293 293 292 288 285 289 287 288 292 292 293 296 299 302 305 305 304 303
237 232 237 236 234 235 230 228 231 229 232 263 275 281 277 273 282 286 304 297 293 293 294 292 293 293 293 291 292 293 293 295 297 299 302 302 302 302
237 232 232 225 237 237 230 229 231 241 229 243 265 277 280 285 296 302 301 303 303 299 297 296 299 301 300 296 295 294 294 295 296 297 298 299 300 300
236 232 230 223 228 228 228 222 219 224 226 241 266 282 283 287 286 298 309 302 298 304 302 302 304 303 299 297 297 295 295 296 295 296 297 299 300 298
244 243 239 237 239 234 232 216 206 212 221 241 263 277 276 280 274 285 291 300 291 280 288 297 304 302 300 298 298 298 295 295 294 295 297 297 298 300
243 248 246 248 254 256 253 245 228 219 221 232 254 256 258 261 262 272 281 297 292 276 288 291 289 284 289 293 301 304 302 301 301 301 302 302 301 301
238 240 251 253 260 238 254 265 264 263 252 237 238 245 250 248 243 253 258 274 273 269 281 282 278 279 288 297 300 300 299 300 301 302 302 304 303 303
234 235 238 244 246 229 225 241 247 254 257 249 237 245 247 244 234 246 255 272 278 275 259 272 282 281 295 294 296 297 299 302 303 302 301 302 302 301
247 243 239 239 254 249 224 230 254 273 286 271 264 268 278 283 277 254 256 277 286 280 251 262 282 298 293 281 289 297 302 306 306 304 302 303 303 303
265 258 251 246 254 252 223 216 240 255 257 284 294 301 297 287 281 244 231 252 284 277 243 255 279 308 301 286 294 306 304 304 308 308 308 307 309 310
261 263 259 265 262 257 251 224 241 254 225 207 236 277 291 285 288 277 250 239 252 261 254 260 270 278 274 292 302 301 303 307 309 308 309 308 309 308
271 272 268 275 272 268 270 261 263 268 200 210 246 271 278 281 280 286 287 279 263 257 256 251 252 261 277 286 288 299 308 306 306 306 309 310 309 307
276 294 304 305 307 299 284 272 270 205 200 221 246 265 269 268 283 301 312 315 308 297 279 261 252 260 261 267 277 288 301 301 302 309 313 310 304 303
311 323 342 353 354 341 335 340 316 198 208 221 240 260 278 282 290 290 297 308 314 315 321 295 269 256 264 271 271 282 292 291 310 315 315 311 308 296
276 360 25 7 15 4 356 360 13 45 331 219 230 278 296 305 304 304 294 296 287 298 317 334 340 303 266 261 270 280 290 300 302 311 312 311 308 300
345 30 352 344 326 318 326 337 344 343 306 276 243 243 270 283 300 312 312 299 289 292 298 309 330 338 336 311 262 272 294 301 309 314 309 311 313 312
33 18 331 321 315 309 312 310 308 301 278 249 251 256 272 283 291 295 299 297 290 289 296 299 308 313 313 311 306 296 298 307 311 314 316 312 308 312
27 355 333 324 321 310 301 301 301 306 297 279 270 271 268 275 287 289 286 283 288 299 309 312 297 284 272 280 285 299 305 299 303 311 317 316 307 307
1 346 331 324 316 309 300 294 290 291 296 291 282 281 276 272 279 283 283 290 295 294 295 296 293 304 302 294 302 314 319 318 311 304 308 314 323 337
343 330 324 318 310 306 301 298 296 295 295 285 280 281 282 277 276 278 278 280 286 291 295 300 310 322 318 301 305 309 320 329 333 338 338 313 299 317
321 313 308 306 305 301 296 295 294 292 289 288 288 289 290 288 283 279 285 287 290 295 310 318 330 336 333 315 307 311 316 325 333 345 342 341 330 314
Height
1478 1479 1480 1480 1482 1483 1484 1484 1485 1484 1483 1483 1484 1485 1485 1485 1484 1484 1483 1483 1482 1482 1481 1480 1480 1479 1478 1477 1476 1475 1474 1473 1472 1471 1470 1468 1467 1465
1474 1475 1475 1477 1477 1478 1479 1480 1481 1481 1480 1480 1480 1481 1481 1480 1480 1479 1478 1478 1477 1476 1476 1475 1474 1474 1473 1472 1471 1470 1469 1468 1467 1466 1464 1463 1461 1460
1470 1470 1471 1473 1473 1474 1475 1476 1476 1477 1476 1476 1476 1476 1476 1475 1475 1474 1473 1473 1472 1471 1471 1470 1469 1468 1468 1467 1466 1465 1464 1463 1462 1461 1459 1458 1456 1454
1465 1466 1467 1468 1469 1469 1470 1471 1472 1472 1472 1471 1471 1471 1471 1471 1470 1469 1468 1468 1467 1466 1465 1465 1464 1463 1462 1461 1461 1460 1459 1458 1457 1455 1454 1452 1451 1449
1461 1462 1462 1463 1464 1465 1466 1466 1467 1468 1468 1468 1466 1466 1466 1466 1465 1464 1464 1463 1462 1462 1461 1460 1459 1458 1457 1456 1455 1454 1453 1452 1451 1450 1449 1447 1445 1444
1457 1457 1458 1459 1459 1460 1461 1462 1462 1463 1463 1463 1462 1462 1461 1461 1461 1460 1458 1458 1457 1457 1456 1455 1454 1453 1452 1452 1450 1449 1448 1447 1446 1444 1443 1442 1440 1438
1453 1453 1454 1454 1455 1456 1457 1457 1458 1458 1458 1458 1458 1457 1457 1456 1456 1455 1454 1453 1452 1452 1451 1450 1449 1448 1447 1446 1445 1444 1443 1441 1440 1439 1438 1436 1434 1433
1449 1449 1449 1450 1451 1452 1452 1453 1454 1454 1453 1454 1453 1453 1452 1452 1452 1451 1451 1449 1448 1448 1446 1445 1445 1443 1442 1441 1440 1439 1438 1436 1435 1434 1432 1430 1429 1427
1445 1445 1445 1446 1447 1447 1448 1448 1449 1449 1450 1450 1449 1449 1448 1448 1448 1447 1447 1446 1444 1444 1442 1440 1440 1438 1437 1436 1435 1434 1433 1431 1430 1428 1427 1425 1423 1422
1441 1441 1442 1442 1442 1443 1443 1444 1444 1445 1445 1445 1445 1445 1445 1445 1444 1444 1443 1442 1441 1440 1439 1436 1435 1434 1432 1431 1431 1429 1428 1427 1425 1423 1422 1420 1419 1417
1438 1438 1438 1438 1439 1439 1440 1439 1440 1440 1441 1441 1441 1441 1441 1441 1441 1440 1439 1437 1435 1435 1435 1433 1431 1429 1428 1427 1426 1425 1423 1422 1420 1419 1417 1415 1414 1412
1435 1435 1435 1435 1436 1436 1436 1436 1435 1436 1436 1436 1437 1437 1437 1436 1436 1436 1435 1434 1432 1431 1431 1430 1428 1427 1424 1422 1422 1421 1419 1417 1416 1414 1412 1411 1409 1408
1433 1432 1432 1432 1432 1433 1433 1432 1432 1433 1433 1433 1432 1432 1432 1432 1432 1432 1431 1430 1429 1428 1428 1427 1425 1424 1423 1419 1417 1417 1415 1413 1411 1409 1408 1406 1405 1403
1430 1430 1430 1430 1429 1430 1430 1429 1429 1430 1429 1429 1428 1428 1428 1428 1428 1427 1427 1426 1426 1425 1424 1424 1422 1421 1419 1416 1414 1412 1411 1409 1407 1405 1404 1402 1401 1399
1428 1428 1427 1427 1427 1426 1427 1427 1427 1426 1426 1425 1425 1425 1425 1424 1424 1423 1423 1422 1422 1421 1420 1419 1419 1417 1416 1414 1411 1409 1407 1405 1404 1402 1400 1398 1396 1395
1427 1426 1425 1425 1424 1424 1424 1423 1423 1423 1422 1422 1421 1421 1421 1421 1420 1419 1418 1418 1417 1416 1416 1416 1415 1414 1412 1411 1409 1406 1405 1403 1401 1399 1398 1395 1394 1392
1425 1424 1423 1422 1422 1421 1421 1420 1420 1420 1419 1419 1419 1418 1418 1417 1417 1416 1415 1415 1414 1412 1412 1412 1411 1411 1409 1408 1405 1404 1402 1401 1399 1397 1395 1393 1391 1389
1423 1422 1421 1420 1420 1419 1418 1418 1418 1417 1417 1416 1416 1416 1415 1414 1414 1413 1412 1412 1411 1410 1409 1409 1408 1407 1406 1405 1404 1402 1400 1399 1397 1395 1393 1391 1388 1387
1421 1420 1419 1419 1418 1417 1416 1416 1415 1415 1415 1414 1414 1413 1413 1412 1411 1411 1410 1409 1409 1408 1407 1407 1406 1405 1404 1402 1401 1401 1399 1397 1395 1393 1391 1390 1387 1386
1419 1418 1418 1417 1416 1416 1415 1414 1414 1413 1413 1412 1411 1411 1411 1410 1409 1408 1408 1407 1407 1406 1405 1405 1405 1404 1403 1402 1400 1398 1398 1395 1393 1391 1390 1388 1386 1385
1418 1417 1416 1415 1414 1414 1413 1412 1412 1411 1411 1410 1410 1409 1409 1408 1407 1407 1406 1406 1405 1404 1403 1403 1403 1403 1402 1401 1399 1396 1396 1395 1393 1391 1389 1387 1385 1383
1416 1416 1415 1414 1413 1412 1411 1411 1410 1409 1409 1408 1408 1407 1407 1406 1406 1405 1404 1404 1403 1403 1402 1402 1401 1401 1400 1399 1397 1395 1394 1393 1392 1390 1388 1387 1385 1382
1415 1414 1413 1412 1411 1410 1410 1409 1408 1407 1407 1406 1406 1405 1405 1404 1404 1403 1403 1402 1402 1401 1400 1400 1399 1399 1398 1397 1396 1394 1393 1391 1390 1388 1387 1386 1384 1382